OpenBCM V2.0.3 (Linux)

Packet Radio Mailbox

IZ3LSV

[San Dona' di P. JN]

 Login: GUEST





  
LU9DCE > KEPS     01.12.16 03:03l 190 Lines 9216 Bytes #999 (0) @ WW
BID : 14206_LU9DCE
Read: GUEST
Subj: TLE OF nov 2016
Path: IZ3LSV<ED1ZAC<CX2SA<LU9DCE
Sent: 161201/0101Z @:LU9DCE.TOR.BA.ARG.SOAM #:14206 [TORTUGUITAS] $:14206_LU9DC
From: LU9DCE@LU9DCE.TOR.BA.ARG.SOAM
To  : KEPS@ALL

OSCAR 3
1 01293U 65016F   16335.20378764  .00000074  00000-0  77738-4 0  9995
2 01293  70.0757  40.1685 0015340 143.4959 216.7201 14.06121233642379
OSCAR 5
1 04321U 70008B   16334.82012838 -.00000025  00000-0  12538-3 0  9994
2 04321 101.7785  38.0820 0027904 193.5365 233.7365 12.52169240141531
OSCAR 6
1  6236U 72082B   16334.90259662 -.00000044 +00000-0 +31469-5 0  9999
2  6236 101.6797 297.1500 0004221 349.4511 031.8567 12.53133957018266
OSCAR 7
1 07530U 74089B   16334.88245716 -.00000050  00000-0 -35378-4 0  9998
2 07530 101.6004 301.7458 0012156 350.6119  39.4886 12.53624400923882
OSCAR 8
1 10703U 78026B   16335.13897199  .00000228  00000-0  18622-3 0  9993
2 10703  98.8588 297.9596 0006568 151.6471 270.5677 13.99219047976759
OSCAR 10
1 14129U 83058B   16335.24804921 -.00000542  00000-0  00000+0 0  9990
2 14129  26.8515  66.3948 6012834 252.0169  21.5970  2.05872107223723
OSCAR 11 (UoSAT 2)
1 14781U 84021B   16334.76918637  .00000161  00000-0  26141-4 0  9996
2 14781  97.7276  21.5055 0009692 127.4239 232.7858 14.82832209760796
OSCAR 16 (PACSAT)
1 20439U 90005D   16334.77630984  .00000029  00000-0  26912-4 0  9998
2 20439  98.5897 269.6232 0011541  35.6997 354.3649 14.32658192402851
OSCAR 17 (DOVE)
1 20440U 90005E   16335.47455332  .00000030  00000-0  27005-4 0  9996
2 20440  98.5704 269.6674 0011299  20.1267  98.7694 14.33051176403185
OSCAR 18 (WEBERSAT)
1 20441U 90005F   16334.87858706 +.00000017 +00000-0 +22412-4 0  9994
2 20441 098.5734 268.3827 0012087 029.9512 005.9506 14.32705798402727
OSCAR 19 (LUSAT)
1 20442U 90005G   16335.75453771  .00000012  00000-0  20545-4 0  9996
2 20442  98.5581 268.4723 0012197  19.2900 340.8743 14.32840553403206
JAS 1B (FUJI 2)
1 20480U 90013C   16335.54917888 -.00000047  00000-0 -41532-4 0  9997
2 20480  99.0239 140.1870 0540882 121.0604 287.5797 12.83413250256243
COSMOS 2123
1 21089U 91007A   16335.33978587  .00000045  00000-0  32147-4 0  9995
2 21089  82.9253  45.4012 0027972 303.2502 101.3513 13.74642413295295
OSCAR 22 (UoSAT 5)
1 21575U 91050B   16335.18653360  .00000033  00000-0  24765-4 0  9999
2 21575  98.7628 340.7884 0007543 164.3301 195.8121 14.40772792332629
OSCAR 23 (KITSAT 1)
1 22077U 92052B   16335.20639306 -.00000040  00000-0  88927-4 0  9996
2 22077  66.0863  23.3524 0002858 187.1249 232.7355 12.86515831141792
KITSAT B
1 22825U 93061C   16335.47693862  .00000007  00000-0  20367-4 0  9990
2 22825  98.7837 292.9392 0008187 184.7272 175.3834 14.29978251209004
POSAT 1
1 22826U 93061D   16335.48353951  .00000010  00000-0  21299-4 0  9993
2 22826  98.7779 293.0510 0008882 175.8778 184.2478 14.30305058209170
ITAMSAT
1 22828U 93061F   16334.89547614  .00000011  00000-0  21363-4 0  9993
2 22828  98.7685 291.3271 0010341 147.7666 212.4150 14.30615769177448
EYESAT A
1 22829U 93061G   16335.91091654  .00000005  00000-0  19313-4 0  9991
2 22829  98.7723 294.9339 0010403 136.5062 287.7929 14.30950403209713
RADIO ROSTO
1 23439U 94085A   16334.83017084 -.00000037 +00000-0 +14560-3 0  9995
2 23439 064.8129 181.6155 0167396 279.7088 212.5917 11.27565104902935
JAS 2
1 24278U 96046B   16335.54832175  .00000013  00000-0  46636-4 0  9994
2 24278  98.5835 238.9775 0351161 131.7732 231.3988 13.53071995  2015
TMSAT
1 25396U 98043C   16335.79272729  .00000020  00000-0  27030-4 0  9990
2 25396  98.5606 278.5550 0002661 160.7887 199.3393 14.24419238955920
TECHSAT 1B
1 25397U 98043D   16335.85488245 -.00000005  00000-0  16809-4 0  9996
2 25397  98.5873 276.6151 0001020 160.0914 200.0304 14.23609587955575
SEDSAT 1
1 25509U 98061B   16334.77946063  .00000116  00000-0  12460-4 0  9999
2 25509  31.4307 116.5931 0346893  55.1942 308.0817 14.30241112945572
PAN SAT
1 25520U 98064B   16335.90132580  .00001094  00000-0  30968-4 0  9991
2 25520  28.4582 254.5814 0005157 327.0568  32.9705 15.28080335  3928
ISS (ZARYA)
1 25544U 98067A   16335.93342337  .00002839  00000-0  50769-4 0  9995
2 25544  51.6439 306.5505 0006051 275.5502 182.0005 15.53764232 30920
OSCAR 36 (UOSAT 12)
1 25693U 99021A   16334.67999493 -.00000039  00000-0  13574-4 0  9996
2 25693  64.5570  20.5446 0014676 328.7884  31.2348 14.80699955950628
OPAL
1 26063U 00004C   16335.45542342 -.00000000  00000-0  19821-4 0  9994
2 26063 100.2087 296.2147 0036789 147.7288 212.6154 14.36643743882840
SAUDISAT 1A
1 26545U 00057A   16335.21934280  .00000110  00000-0  30716-4 0  9994
2 26545  64.5547 344.1630 0054441 254.7604 104.7480 14.84668712874800
TIUNGSAT 1
1 26548U 00057D   16335.28428154  .00000187  00000-0  36291-4 0  9990
2 26548  64.5515 261.7210 0047572 251.3740 108.2200 14.88890840876485
SAUDISAT 1B
1 26549U 00057E   16335.63334530  .00000098  00000-0  30039-4 0  9999
2 26549  64.5550  15.8673 0058847 257.4341 102.0179 14.83289624874197
AMSAT OSCAR 40
1 26609U 00072B   16334.83538853 -.00000080 +00000-0 +00000-0 0  9991
2 26609 006.7136 266.8231 7963653 048.6382 356.0998 01.25587749073712
PCSAT
1 26931U 01043C   16335.88765201  .00000020  00000-0  39404-4 0  9990
2 26931  67.0516 242.8249 0005685 278.4355  81.6102 14.30437347791985
SAPPHIRE
1 26932U 01043D   16335.12866698 -.00000014  00000-0  26442-4 0  9992
2 26932  67.0566 246.8397 0003917 277.0484  83.0171 14.30232775791905
RUBIN 2
1 27605U 02058A   16335.21525268 -.00000011  00000-0  19239-4 0  9995
2 27605  64.5562 355.4231 0049057 176.6990 183.4446 14.74860971750139
SAUDISAT 1C
1 27607U 02058C   16335.52359148  .00000095  00000-0  34482-4 0  9991
2 27607  64.5562  12.6145 0048210 176.8473 183.2943 14.75255022749803
MOZHAYETS 4
1 27939U 03042A   16335.85432262  .00000157  00000-0  36597-4 0  9996
2 27939  97.9109 121.3509 0014044 132.2665  36.7231 14.66494121704243
AMSAT ECHO
1 28375U 04025K   16334.77953573  .00000033  00000-0  22917-4 0  9990
2 28375  98.3426 266.5529 0082840 164.1147 196.2670 14.41812677653084
HAMSAT
1 28650U 05017B   16335.85785333  .00000416  00000-0  50274-4 0  9997
2 28650  97.6271 311.2456 0025054  68.6349 291.7539 14.88498051626669
SSETI-EXPRESS
1 28894U 05043E   16335.49128655  .00000082  00000-0  25347-4 0  9996
2 28894  97.8560 136.1842 0018365  66.9802 293.3335 14.61400468591318
MOZ.5/SAFIR/RUBIN 5/SL-8
1 28898U 05043G   16335.05062144  .00000060  00000-0  21557-4 0  9997
2 28898  97.8986 127.8081 0021187  93.9451 266.4172 14.60148642590773
PEHUENSAT 1
1 29712U 07001D   16335.17697020  .00002733  00000-0  16651-3 0  9996
2 29712  97.5682 355.3984 0006082 230.6357 129.4335 15.11206836537273
DELFI C3
1 32789U 08021G   16335.16231033  .00001869  00000-0  13897-3 0  9992
2 32789  97.5879  31.3912 0014438  63.2231 297.0470 15.04126495466947
YUBELEINY
1 32953U 08025A   16335.80757934  .00000032  00000-0  15856-3 0  9991
2 32953  82.5033   3.0327 0018788   2.3830 357.7336 12.43073275386777
PRISM (HITOMI)
1 33493U 09002B   16335.71405908  .00001086  00000-0  10413-3 0  9992
2 33493  98.1925 203.4731 0016061  20.9961 339.1917 14.95328133426115
STARS (KUKAI)
1 33498U 09002G   16335.49300466  .00000401  00000-0  62703-4 0  9995
2 33498  98.3047 136.9967 0009855 266.0826 128.2023 14.78422741422543
KKS-1 (KISEKI)
1 33499U 09002H   16335.19783774  .00000185  00000-0  35485-4 0  9996
2 33499  98.3083 129.0414 0008030 290.6170  69.4176 14.75099245422027
SUMBANDILA
1 35870U 09049F   16335.70530370  .00006397  00000-0  11125-3 0  9996
2 35870  97.1119 348.4672 0003981  74.4803  16.6910 15.51136260402430
XIWANG-1 (HOPE-1)
1 36122U 09072B   16335.89026953 -.00000016  00000-0  70374-4 0  9995
2 36122 100.1238   4.8554 0007204 337.2220  22.8573 13.16337150334534
JUGNU
1 37839U 11058B   16334.87296042  .00000338  00000-0  38191-4 0  9990
2 37839  19.9603 218.9947 0019104 146.4305 294.0123 14.12564323265485
SRMSAT
1 37841U 11058D   16335.00697456  .00000321  00000-0  31239-4 0  9991
2 37841  19.9718 255.7701 0011921  54.2841  36.1828 14.10559515265125
RAX-2
1 37853U 11061D   16334.89335836  .00001839  00000-0  11248-3 0  9997
2 37853 101.7072  95.2673 0178811 315.8927  42.8137 15.00602888276748
AUBIESAT-1
1 37854U 11061E   16335.56302336  .00002287  00000-0  13168-3 0  9993
2 37854 101.7017 102.2093 0170094 302.4212  56.0642 15.03201357277082
M-CUBED/EXP-1 PRIME
1 37855U 11061F   16335.83406452  .00002365  00000-0  13324-3 0  9999
2 37855 101.7133 100.5641 0183637 306.9056  51.5448 15.02140166277009
CHIBIS-M
1 38051U 11062C   14288.65876392  .70201582  12497-4  27925-2 0  9995
2 38051 051.5964 324.1908 0006422 269.6897 186.8903 16.43533377153081
MASAT-1
1 38081U 12006E   15009.86954674  .36181825  49011-5  43735-3 0  9992
2 38081 069.4150 141.5751 0006093 101.2598 259.4750 16.49686879155248


======================================================================
A su amigo, el gato le deja siempre seƱalado.
======================================================================
        __  __  __ __
|  /  \(__\|  \/  |_    BBS GF05OM TORTUGUITAS 145010Mhz
|__\__/ __/|__/\__|__   TELNET LU9DCE.DYNU.COM PORT 6300
== power by linux ===   NODO LU9DCE.DYNU.COM PORT 3694

## AMPR NET 44 // LU9DCE.AMPR.ORG // 44.153.32.97
FACEBOOK ## https://www.facebook.com/groups/newpacketradio/
----------------------------------------------------------------------

RADIO PACKET INTERNACIONAL
""""""""""""""""""""""""""
https://chat.whatsapp.com/Id3cEQjDdXl8BL0Sik4lGQ



Read previous mail | Read next mail


 14.09.2026 19:59:24lGo back Go up